Regional Weather Roundup
Issued by NWS Wakefield, VA

Home | Current Version | Previous Version | Text Only | Print | Product List | Glossary Off
Versions: 1 2 3 4 5 6 7 8 9 10 11 12 13 14 15 16 17 18 19 20 21 22 23 24 25 26 27 28 29 30 31 32 33 34 35 36 37 38 39 40 41 42 43 44 45 46 47 48 49 50

000
ASUS41 KAKQ 231015
RWRAKQ

REGIONAL WEATHER ROUNDUP
NATIONAL WEATHER SERVICE WAKEFIELD VA
600 AM EDT THU MAR 23 2017

Note: "fair" indicates few or no clouds below 12,000 feet with no
significant weather and/or obstructions to visibility. * = Denotes
station may not report precipitation (e.g., rain,snow,etc.),
thunder or fog.

VAZ042-051-052>054-056-231100-
NORTHERN VIRGINIA

CITY           SKY/WX    TMP DP  RH WIND       PRES   REMARKS
WASH NATIONAL  CLEAR     30   8  39 E7        30.60R
DULLES         CLEAR     24  10  55 CALM      30.58R
FORT BELVOIR   CLEAR     24  13  61 CALM      30.60R
QUANTICO       CLEAR     34  12  40 VRB6      30.60R
FREDERICKSBRG* CLEAR     28  18  66 CALM      30.58R
STAFFORD*      CLEAR     21  14  72 CALM      30.62R
WARRENTON      CLEAR     24  10  55 NE5       30.57R
CULPEPER*      CLEAR     22  13  69 NE3       30.59R
MANASSAS*      CLEAR     20  14  77 CALM      30.59R
LEESBURG*      CLEAR     27  14  59 CALM      30.59R
WINCHESTER     CLEAR     23   7  50 N3        30.56R
FRONT ROYAL*   SUNNY     27  10  50 CALM      30.54R
LURAY*         SUNNY     28  19  69 N6        30.53R
$$

VAZ048-049-060>072-079>083-231100-
CENTRAL AND SOUTH CENTRAL VIRGINIA

CITY           SKY/WX    TMP DP  RH WIND       PRES   REMARKS
RICHMOND       CLEAR     30  14  51 NE3       30.56R
CHESTERFIELD*  FAIR      27   3  36 CALM      30.56R
PETERSBURG*    CLEAR     25  17  69 CALM      30.56R
HANOVER        CLEAR     25  15  66 CALM      30.57R
TAPPAHANNOCK*  CLEAR     28   2  33 CALM      30.57R
QUINTON*       FAIR      27  18  67 CALM      30.55R
CHARLOTTSVILLE CLEAR     28   9  44 NE6       30.54R
GORDONSVILLE*  SUNNY     23  18  80 CALM      30.55R
ORANGE*        CLEAR     25  14  63 CALM      30.57R
LOUISA*        CLEAR     34  10  37 CALM      30.54R
BUMPASS*       FAIR      29  11  47 CALM      30.55R
FARMVILLE*     PTCLDY    29  14  53 CALM      30.53R
CREWE*         FAIR      30  10  43 CALM      30.53R
FORT PICKETT*  FAIR      28   5  36 NE3       30.53R
CHASE CITY*    FAIR      30  11  44 CALM      30.52R
CLARKSVILLE*   FAIR      30  19  64 CALM      30.52R
SOUTH HILL*    CLEAR     29  15  54 N5        30.57R
LAWRENCEVILLE* FAIR      28  15  57 CALM      30.53R
EMPORIA*       CLEAR     28  18  64 N3        30.55R
$$

VAZ088>098-231100-
SOUTHEAST VIRGINIA

CITY           SKY/WX    TMP DP  RH WIND       PRES   REMARKS
NORFOLK        CLEAR     35  13  40 NE20      30.54R WCI  24
VIRGINIA BEACH PTCLDY    33  16  49 N8        30.53R
NORFOLK NAVAL  PTCLDY    35  11  36 NE13G22   30.56R
WEST POINT*    CLEAR     26  15  61 NE3       30.59R
SALUDA*        FAIR      32  12  44 N7        30.56R
NEWPORT NEWS   CLEAR     32  16  51 NE6       30.55R
LANGLEY AFB    CLEAR     33  18  54 NE12      30.55R WCI  24
FORT EUSTIS    PTCLDY    31  14  48 CALM      30.53R
WILLIAMSBURG*  CLEAR     30  21  69 CALM      30.57R
HR EXEC AP*    FAIR      34  12  40 NE5       30.53R
FRANKLIN*      CLOUDY    27  20  76 CALM      30.55R
US460-WAKEFLD  CLOUDY    26  19  74 CALM      30.55R
$$

VAZ020-022-025-037-045-231100-
WEST CENTRAL AND SOUTHWEST VIRGINIA

CITY           SKY/WX    TMP DP  RH WIND       PRES   REMARKS
STAUNTON*      CLEAR     19  11  72 N5        30.52S
WAYNESBORO*    SUNNY     22  12  66 CALM      30.49R
HOT SPRINGS VA CLEAR     27   3  36 S5        30.36R
LYNCHBURG      CLEAR     25  13  60 CALM      30.53R
DANVILLE       CLEAR     28  14  55 CALM      30.52R
SOUTH BOSTON*  FAIR      27  16  64 CALM      30.53R
MARTINSVILLE   CLEAR     24  16  73 CALM      30.52R
ROANOKE        CLEAR     33  12  41 SE7       30.51R
BLACKSBURG     CLEAR     26  17  66 CALM      30.47R
DUBLIN*        CLEAR     26  20  77 CALM      30.45R
MARION*        CLEAR     31  15  51 NE9       30.42S
HILLSVILLE*    CLEAR     30  11  45 CALM      30.39S
RICHLANDS*     FAIR      35  15  43 CALM      30.33S
WISE*          CLEAR     32  14  47 CALM      30.34R
ABINGDON*      CLEAR     37  17  43 E12       30.36R
$$

MDZ021>025-VAZ099-100-231100-
SOUTHERN MARYLAND AND THE DELMARVA PENINSULA

CITY           SKY/WX    TMP DP  RH WIND       PRES   REMARKS
PATUXENT RIVER CLEAR     29   7  39 NE12      30.58R WCI  19
BAY BRIDGE APT CLEAR     28   7  40 MISG      30.60R
LEONARDTOWN    CLEAR     28  12  50 CALM      30.59R
DOVER          CLEAR     24  10  55 N12       30.57R WCI  13
GEORGETOWN     CLEAR     28   7  41 N9        30.57R
EASTON         CLEAR     27   5  39 CALM      30.62R
CAMBRIDGE      CLEAR     28   5  37 N9G16     30.59R
SALISBURY      CLEAR     25   8  48 N7        30.56R
OCEAN CITY     CLEAR     28   8  43 N13       30.56R WCI  17
WALLOPS ISLAND CLEAR     26   9  48 N5        30.56R
ACCOMACK*      CLEAR     28   9  44 N5        30.56R
$$

NCZ012>017-030>032-231100-
NORTH CENTRAL AND EASTERN NORTH CAROLINA

CITY           SKY/WX    TMP DP  RH WIND       PRES   REMARKS
ROANOKE RAPIDS FAIR      28  19  69 CALM      30.53R
RALEIGH        PTCLDY    33  13  43 NE7       30.50R
ELIZABETH CITY PTCLDY    35  23  61 N10       30.54R
AHOSKIE*       NOT AVBL
EDENTON*       PTCLDY    34  26  72 NE6       30.54R
CURRITUCK*     PTCLDY    37  20  50 N10       30.54R
KILL DEVIL HLS NOT AVBL
MANTEO         PTCLDY    38  23  55 NE14      30.52R
CAPE HATTERAS  CLEAR     42  24  49 NE13G23   30.47R
TARBORO*       NOT AVBL
GOLDSBORO      CLEAR     35  26  68 NE6       30.48R
WASHINGTON     CLEAR     32  26  77 CALM      30.50R
GREENVILLE     CLEAR     28  27  93 N7        30.50R
NEW BERN       CLEAR     33  29  85 E3        30.50R
WILMINGTON     CLEAR     33  28  81 NE7       30.46R
$$

VAZ048-231100-
ELSEWHERE

CITY           SKY/WX    TMP DP  RH WIND       PRES   REMARKS
HARRISBURG PA  CLEAR     25   5  42 CALM      30.58R
BALTIMORE      CLEAR     27   4  37 N3        30.59R
ANNAPOLIS      CLEAR     32  13  45 N9        30.59R
ANDREWS AFB    CLEAR     24   8  49 NE6       30.57R
PHILADELPHIA   CLEAR     24   5  44 NW7       30.59R
HENDERSON NC   CLEAR     28  13  54 CALM      30.51R
GREENSBORO     CLEAR     33  13  43 E8        30.47R
ROCKY MOUNT    CLEAR     31  22  69 NE5       30.52R
$$

VAZ100-231100-
MARINE

STATION/POSITION TIME  TEMP    WIND        PRES    WAVE   SWELL
                       AIR SEA DIR/SP/G            HT/PER HT/PER
                 (UTC) (F)     (DEG/KT/KT) (MB)    (FT/S) (FT/S)
CAPE MAY NJ      0948   26 42   20/  4/ 10 1035.0R
LEWES DE         0948   29 40   10/ 19/ 23 1035.2R
OCEAN-CITY-INLET 0948   31 42   20/ 14/ 20 1034.9R
WACHAPREAGUE VA  0948   28 46  320/  1/  4 1034.5R
THOMAS POINT MD  1000   31 43   30/ 14/ 15   N/A
GOOSES REEF MD   1000   32 43   80/ 12/ 16 1036.0    2/ 3
COVE POINT MD    0948   30      60/ 12/ 16 1035.9R
BISHOPS HEAD MD  0948   29 39   30/ 12/ 15 1035.4R
PINEY POINT MD   0948           60/  4/  5   N/A
POTOMAC MD       1000   33 45   50/ 12/ 16 1034.5    1/ 2
CAMBRIDGE MD     0948   29 44   20/  9/ 12 1034.9R
LEWISETTA VA     0948   33 47   50/  9/ 13 1035.1R
RAPPAHANNOCK LGT 0948           20/ 20/ 23 1035.2R
STINGRAY PT      0950   34      60/ 16/ 19 1034.7R
YORK RVR RNG VA  0948   36      40/ 15/ 18 1033.9R
YORKTOWN VA      0948   36 48   40/ 12/ 13 1034.3R
JAMESTOWN VA     1000   33 49   30/  4/  6   N/A     0
DOMINION TERM VA 0948   36      40/  5/  8 1034.3R
KIPTOPEKE VA     0948      45   20/  7/ 11   N/A
CHES BAY BRIDGE  0948   35 47   30/ 19/ 22 1034.1R
CAPE HENRY VA    0948   36      20/ 18/ 21   N/A
WILLOUBY STN VA  0948   36      40/ 15/ 18 1035.1R
S CRANEY ISL VA  0948   37      50/ 13/ 17 1033.8R
CAPE HENRY BUOY  0942      45                N/A     5/ 6
CAPE CHARLES BUO 0951      45                N/A     5/ 6
OFFSHORE WE BUOY 0951      45                N/A     7/ 7   2/11
64NM E OF VA BCH 0950   39 50   20/ 21/ 25 1032.5R   8/ 8   3/11
DUCK PIER NC     0948   40 47   30/ 15/ 18 1033.1R
44100 DUCK FRF   0935      47                N/A     7/ 7   2/11
44056 DUCK FRF   0930      47                N/A     6/ 7   2/11
OREGON INLET NC  0948           10/ 13/ 19   N/A
HATTERAS NC      0948   42 53   20/ 17/ 24 1031.5R
DIAMOND SHLS NC  0950   45 75   30/ 23/ 29 1031.2R  11/11   5/11
CAPE LOOKOUT NC  0900   43      20/ 14/ 18 1030.7R
$$



USA.gov is the U.S. government's official web portal to all federal, state and local government web resources and services.